Date String (YYYY-MM-DD hh:mm:ss) UTC,Instrument flags,absolute air pressure of the measurement (hPa),sample flow rate (lpm),inlet stack bypass flow (lpm),air temperature of the measurement (°C),ambient temperature measured by the external sensor (°C),aerosol sample conditioner tube jacket temperature (°C),OPC LED temperature (°C),internal box temperature (°C),relative humidity of the measurement (%),span deviation,mass concentration of particles derived from Lorenz-Mie calculation of OPC scattering (μg/m³),mass concentration of particles derived from Lorenz-Mie calculation of OPC scattering (μg/m³),mass concentration of particles derived from Lorenz-Mie calculation of OPC scattering (μg/m³)
DateTimeUTC,F1_M11,P_M11,Q1_M11,Q2_M11,T1_M11,T2_M11,T3_M11,T4_M11,T5_M11,U1_M11,ZSPAN_M11,X0_M11,X2_M11,X1_M11
2023-10-28 02:00:00,SystemResetWarning,0831.1,4.99,000.00,024.3,022.6,000.0,032.7,025.7,14.6,0000.6,0015.27,0008.51,0007.88
2023-10-28 02:01:00,SystemResetWarning,0831.1,4.99,000.00,024.3,022.5,000.0,032.7,025.7,14.4,0000.7,0014.99,0008.54,0007.88
2023-10-28 02:02:00,SystemResetWarning,0831.1,4.99,000.00,024.2,022.5,000.0,032.7,025.7,14.2,0000.7,0014.61,0008.52,0007.86
2023-10-28 02:03:00,SystemResetWarning,0831.1,5.01,000.00,024.2,022.5,000.0,032.7,025.7,14.4,0000.7,0015.04,0008.51,0007.84
2023-10-28 02:04:00,SystemResetWarning,0831.1,5.02,000.00,024.2,022.5,000.0,032.7,025.6,14.6,0000.5,0015.23,0008.47,0007.81
2023-10-28 02:05:00,SystemResetWarning,0831.1,5.00,000.00,024.2,022.5,000.0,032.7,025.6,14.6,0000.4,0014.74,0008.41,0007.77
2023-10-28 02:06:00,SystemResetWarning,0831.0,5.00,000.00,024.2,022.4,000.0,032.6,025.6,14.5,0000.6,0014.29,0008.35,0007.73
2023-10-28 02:07:00,SystemResetWarning,0831.0,5.00,000.00,024.2,022.4,000.0,032.6,025.5,14.5,0001.3,0013.28,0008.32,0007.71
2023-10-28 02:08:00,SystemResetWarning,0831.0,5.00,000.00,024.2,022.4,000.0,032.6,025.5,14.5,0001.4,0012.57,0008.27,0007.69
2023-10-28 02:09:00,SystemResetWarning,0831.0,5.00,000.00,024.2,022.4,000.0,032.6,025.5,14.4,0000.9,0012.30,0008.21,0007.65
2023-10-28 02:10:00,SystemResetWarning,0830.9,5.00,000.00,024.1,022.4,000.0,032.6,025.5,14.5,0000.5,0012.25,0008.17,0007.61
2023-10-28 02:11:00,SystemResetWarning,0830.9,5.00,000.00,024.1,022.4,000.0,032.6,025.5,14.3,0000.9,0011.83,0008.13,0007.57
2023-10-28 02:12:00,SystemResetWarning,0830.9,5.00,000.00,024.1,022.4,000.0,032.6,025.5,14.4,0000.9,0011.81,0008.06,0007.52
2023-10-28 02:13:00,SystemResetWarning,0830.9,5.00,000.00,024.1,022.4,000.0,032.5,025.5,14.4,0000.9,0012.13,0008.05,0007.50
2023-10-28 02:14:00,SystemResetWarning,0830.9,4.99,000.00,024.1,022.4,000.0,032.5,025.5,14.4,0000.8,0011.90,0008.05,0007.48
2023-10-28 02:15:00,SystemResetWarning,0830.9,5.00,000.00,024.1,022.4,000.0,032.5,025.5,14.3,0000.7,0011.49,0008.02,0007.45
2023-10-28 02:16:00,SystemResetWarning,0830.9,5.00,000.00,024.1,022.4,000.0,032.5,025.5,14.2,0000.6,0011.55,0008.03,0007.45
2023-10-28 02:17:00,SystemResetWarning,0830.9,5.01,000.00,024.1,022.3,000.0,032.5,025.5,14.1,0000.5,0011.86,0008.03,0007.45
2023-10-28 02:18:00,SystemResetWarning,0830.9,5.01,000.00,024.0,022.3,000.0,032.5,025.5,14.3,0000.1,0011.94,0008.02,0007.42
2023-10-28 02:19:00,SystemResetWarning,0830.9,5.01,000.00,024.0,022.3,000.0,032.5,025.5,14.4,-000.1,0011.87,0007.98,0007.39
2023-10-28 02:20:00,SystemResetWarning,0830.9,4.99,000.00,024.0,022.3,000.0,032.5,025.4,14.1,0000.1,0011.77,0007.96,0007.36
2023-10-28 02:21:00,SystemResetWarning,0830.9,4.99,000.00,024.0,022.3,000.0,032.5,025.4,14.3,0000.5,0012.01,0007.89,0007.31
2023-10-28 02:22:00,SystemResetWarning,0830.9,5.01,000.00,024.0,022.3,000.0,032.4,025.4,14.9,-000.0,0012.00,0007.79,0007.24
2023-10-28 02:23:00,SystemResetWarning,0830.9,5.01,000.00,024.0,022.3,000.0,032.4,025.4,14.9,-000.1,0011.80,0007.71,0007.16
2023-10-28 02:24:00,SystemResetWarning,0830.9,5.00,000.00,024.0,022.3,000.0,032.4,025.4,14.7,0000.3,0011.31,0007.58,0007.06
2023-10-28 02:25:00,SystemResetWarning,0830.9,5.00,000.00,024.0,022.3,000.0,032.4,025.4,14.9,0000.4,0011.22,0007.47,0006.98
2023-10-28 02:26:00,SystemResetWarning,0830.9,5.00,000.00,024.0,022.3,000.0,032.4,025.4,14.6,0000.7,0011.53,0007.39,0006.89
2023-10-28 02:27:00,SystemResetWarning,0830.9,5.01,000.00,023.9,022.2,000.0,032.4,025.4,14.7,0001.0,0012.30,0007.31,0006.79
2023-10-28 02:28:00,SystemResetWarning,0830.9,5.00,000.00,023.9,022.3,000.0,032.4,025.4,14.8,0001.5,0012.04,0007.19,0006.67
2023-10-28 02:29:00,SystemResetWarning,0831.0,5.00,000.00,023.9,022.3,000.0,032.4,025.4,14.9,0002.1,0012.83,0007.06,0006.55
2023-10-28 02:30:00,SystemResetWarning,0830.9,5.00,000.00,023.9,022.2,000.0,032.4,025.4,15.0,0002.1,0014.57,0006.95,0006.43
2023-10-28 02:31:00,SystemResetWarning,0830.9,5.00,000.00,023.9,022.2,000.0,032.3,025.4,15.0,0001.5,0015.13,0006.86,0006.34
2023-10-28 02:32:00,SystemResetWarning,0830.9,5.00,000.00,023.9,022.2,000.0,032.3,025.3,14.7,0001.1,0014.97,0006.78,0006.25
2023-10-28 02:33:00,SystemResetWarning,0831.0,5.00,000.00,023.9,022.2,000.0,032.3,025.3,14.5,0001.3,0014.58,0006.69,0006.18
2023-10-28 02:34:00,SystemResetWarning,0830.9,5.00,000.00,023.9,022.2,000.0,032.3,025.3,14.6,0001.3,0014.99,0006.61,0006.11
2023-10-28 02:35:00,SystemResetWarning,0830.9,5.00,000.00,023.9,022.1,000.0,032.3,025.3,14.6,0000.3,0015.31,0006.59,0006.07
2023-10-28 02:36:00,SystemResetWarning,0830.9,4.99,000.00,023.8,022.1,000.0,032.3,025.3,14.6,0000.4,0015.65,0006.55,0006.01
2023-10-28 02:37:00,SystemResetWarning,0830.9,4.99,000.00,023.8,022.1,000.0,032.3,025.3,14.6,0000.2,0015.30,0006.47,0005.97
2023-10-28 02:38:00,SystemResetWarning,0830.9,5.01,000.00,023.8,022.1,000.0,032.3,025.3,14.5,-000.1,0014.36,0006.42,0005.94
2023-10-28 02:39:00,SystemResetWarning,0830.9,5.01,000.00,023.8,022.1,000.0,032.3,025.2,14.3,-000.4,0014.44,0006.40,0005.92
2023-10-28 02:40:00,SystemResetWarning,0830.8,5.01,000.00,023.8,022.1,000.0,032.2,025.2,14.3,-000.2,0013.40,0006.40,0005.89
2023-10-28 02:41:00,SystemResetWarning,0830.8,5.00,000.00,023.8,022.1,000.0,032.2,025.2,14.3,0000.2,0012.10,0006.36,0005.88
2023-10-28 02:42:00,SystemResetWarning,0830.9,4.99,000.00,023.8,022.0,000.0,032.2,025.2,14.4,0000.7,0012.35,0006.35,0005.85
2023-10-28 02:43:00,SystemResetWarning,0831.0,5.00,000.00,023.8,022.0,000.0,032.2,025.2,14.4,0000.5,0012.12,0006.31,0005.81
2023-10-28 02:44:00,SystemResetWarning,0830.9,5.00,000.00,023.8,022.0,000.0,032.2,025.2,14.4,0000.8,0012.44,0006.32,0005.77
2023-10-28 02:45:00,SystemResetWarning,0830.9,5.00,000.00,023.7,022.0,000.0,032.2,025.2,14.4,0000.7,0011.95,0006.31,0005.75
2023-10-28 02:46:00,SystemResetWarning,0831.0,5.00,000.00,023.7,022.0,000.0,032.2,025.2,14.5,0000.9,0011.48,0006.23,0005.70
2023-10-28 02:47:00,SystemResetWarning,0831.0,5.00,000.00,023.7,022.0,000.0,032.2,025.2,14.5,0001.2,0011.05,0006.18,0005.64
2023-10-28 02:48:00,SystemResetWarning,0830.9,5.00,000.00,023.7,022.0,000.0,032.2,025.2,14.5,0001.3,0011.23,0006.16,0005.60
2023-10-28 02:49:00,SystemResetWarning,0830.9,5.00,000.00,023.7,022.0,000.0,032.1,025.2,14.5,0001.8,0011.12,0006.07,0005.52
2023-10-28 02:50:00,SystemResetWarning,0830.9,5.01,000.00,023.7,022.0,000.0,032.1,025.1,14.5,0002.0,0011.28,0006.01,0005.46
2023-10-28 02:51:00,SystemResetWarning,0830.9,5.01,000.00,023.7,022.0,000.0,032.1,025.1,14.5,0001.0,0012.00,0005.93,0005.40
2023-10-28 02:52:00,SystemResetWarning,0830.9,5.00,000.00,023.7,022.0,000.0,032.1,025.1,14.5,0000.0,0011.52,0005.87,0005.33
2023-10-28 02:53:00,SystemResetWarning,0830.9,4.99,000.00,023.7,022.0,000.0,032.1,025.1,14.6,0000.0,0010.55,0005.78,0005.27
2023-10-28 02:54:00,SystemResetWarning,0831.0,4.99,000.00,023.6,022.0,000.0,032.1,025.1,14.5,0000.0,0010.47,0005.75,0005.22
2023-10-28 02:55:00,SystemResetWarning,0831.1,5.00,000.00,023.6,022.0,000.0,032.1,025.1,14.5,0000.0,0010.12,0005.67,0005.16
2023-10-28 02:56:00,SystemResetWarning,0831.1,5.00,000.00,023.6,021.9,000.0,032.1,025.1,14.5,0000.0,0010.11,0005.60,0005.11
2023-10-28 02:57:00,SystemResetWarning,0831.1,5.00,000.00,023.6,021.9,000.0,032.1,025.0,14.5,0000.0,0010.03,0005.55,0005.08
2023-10-28 02:58:00,SystemResetWarning,0831.1,5.01,000.00,023.6,021.9,000.0,032.0,025.0,14.4,0000.0,0010.04,0005.54,0005.07
2023-10-28 02:59:00,SystemResetWarning,0831.1,5.01,000.00,023.6,021.9,000.0,032.0,025.0,14.4,0000.0,0010.01,0005.54,0005.04
